Year,Month,Day,Hour,Minute,Value (Times are PST for temperature in C)
2014,07,04,00,00,14.10
2014,07,04,00,01,14.10
2014,07,04,00,02,14.10
2014,07,04,00,03,14.10
2014,07,04,00,04,14.10
2014,07,04,00,05,14.10
2014,07,04,00,06,14.10
2014,07,04,00,07,14.10
2014,07,04,00,08,14.00
2014,07,04,00,09,14.00
2014,07,04,00,10,14.00
2014,07,04,00,11,14.00
2014,07,04,00,12,14.00
2014,07,04,00,13,14.00
2014,07,04,00,14,14.00
2014,07,04,00,15,14.00
2014,07,04,00,16,14.00
2014,07,04,00,17,14.00
2014,07,04,00,18,13.90
2014,07,04,00,19,13.90
2014,07,04,00,20,13.90
2014,07,04,00,21,13.90
2014,07,04,00,22,13.90
2014,07,04,00,23,13.90
2014,07,04,00,24,13.80
2014,07,04,00,25,13.80
2014,07,04,00,26,13.80
2014,07,04,00,27,13.80
2014,07,04,00,28,13.80
2014,07,04,00,29,13.80
2014,07,04,00,30,13.80
2014,07,04,00,31,13.70
2014,07,04,00,32,13.70
2014,07,04,00,33,13.70
2014,07,04,00,34,13.70
2014,07,04,00,35,13.70
2014,07,04,00,36,13.60
2014,07,04,00,37,13.60
2014,07,04,00,38,13.60
2014,07,04,00,39,13.60
2014,07,04,00,40,13.60
2014,07,04,00,41,13.50
2014,07,04,00,42,13.50
2014,07,04,00,43,13.50
2014,07,04,00,44,13.40
2014,07,04,00,45,13.40
2014,07,04,00,46,13.40
2014,07,04,00,47,13.30
2014,07,04,00,48,13.30
2014,07,04,00,49,13.30
2014,07,04,00,50,13.20
2014,07,04,00,51,13.20
2014,07,04,00,52,13.20
2014,07,04,00,53,13.20
2014,07,04,00,54,13.10
2014,07,04,00,55,13.10
2014,07,04,00,56,13.10
2014,07,04,00,57,13.10
2014,07,04,00,58,13.10
2014,07,04,00,59,13.10
2014,07,04,01,00,13.10
2014,07,04,01,01,13.10
2014,07,04,01,02,13.10
2014,07,04,01,03,13.10
2014,07,04,01,04,13.10
2014,07,04,01,05,13.10
2014,07,04,01,06,13.10
2014,07,04,01,07,13.10
2014,07,04,01,08,13.10
2014,07,04,01,09,13.10
2014,07,04,01,10,13.10
2014,07,04,01,11,13.10
2014,07,04,01,12,13.20
2014,07,04,01,13,13.20
2014,07,04,01,14,13.20
2014,07,04,01,15,13.20
2014,07,04,01,16,13.20
2014,07,04,01,17,13.20
2014,07,04,01,18,13.20
2014,07,04,01,19,13.20
2014,07,04,01,20,13.20
2014,07,04,01,21,13.20
2014,07,04,01,22,13.20
2014,07,04,01,23,13.20
2014,07,04,01,24,13.10
2014,07,04,01,25,13.10
2014,07,04,01,26,13.10
2014,07,04,01,27,13.10
2014,07,04,01,28,13.00
2014,07,04,01,29,13.00
2014,07,04,01,30,12.90
2014,07,04,01,31,12.90
2014,07,04,01,32,12.80
2014,07,04,01,33,12.80
2014,07,04,01,34,12.80
2014,07,04,01,35,12.80
2014,07,04,01,36,12.80
2014,07,04,01,37,12.70
2014,07,04,01,38,12.70
2014,07,04,01,39,12.70
2014,07,04,01,40,12.70
2014,07,04,01,41,12.70
2014,07,04,01,42,12.70
2014,07,04,01,43,12.70
2014,07,04,01,44,12.60
2014,07,04,01,45,12.60
2014,07,04,01,46,12.60
2014,07,04,01,47,12.60
2014,07,04,01,48,12.60
2014,07,04,01,49,12.50
2014,07,04,01,50,12.50
2014,07,04,01,51,12.50
2014,07,04,01,52,12.50
2014,07,04,01,53,12.50
2014,07,04,01,54,12.50
2014,07,04,01,55,12.40
2014,07,04,01,56,12.40
2014,07,04,01,57,12.40
2014,07,04,01,58,12.40
2014,07,04,01,59,12.40
2014,07,04,02,00,12.40
2014,07,04,02,01,12.30
2014,07,04,02,02,12.30
2014,07,04,02,03,12.30
2014,07,04,02,04,12.30
2014,07,04,02,05,12.30
2014,07,04,02,06,12.30
2014,07,04,02,07,12.30
2014,07,04,02,08,12.30
2014,07,04,02,09,12.30
2014,07,04,02,10,12.30
2014,07,04,02,11,12.30
2014,07,04,02,12,12.30
2014,07,04,02,13,12.30
2014,07,04,02,14,12.30
2014,07,04,02,15,12.30
2014,07,04,02,16,12.30
2014,07,04,02,17,12.30
2014,07,04,02,18,12.30
2014,07,04,02,19,12.30
2014,07,04,02,20,12.30
2014,07,04,02,21,12.30
2014,07,04,02,22,12.30
2014,07,04,02,23,12.30
2014,07,04,02,24,12.30
2014,07,04,02,25,12.30
2014,07,04,02,26,12.30
2014,07,04,02,27,12.30
2014,07,04,02,28,12.30
2014,07,04,02,29,12.30
2014,07,04,02,30,12.30
2014,07,04,02,31,12.30
2014,07,04,02,32,12.30
2014,07,04,02,33,12.30
2014,07,04,02,34,12.30
2014,07,04,02,35,12.30
2014,07,04,02,36,12.30
2014,07,04,02,37,12.30
2014,07,04,02,38,12.30
2014,07,04,02,39,12.30
2014,07,04,02,40,12.30
2014,07,04,02,41,12.30
2014,07,04,02,42,12.30
2014,07,04,02,43,12.30
2014,07,04,02,44,12.30
2014,07,04,02,45,12.30
2014,07,04,02,46,12.30
2014,07,04,02,47,12.30
2014,07,04,02,48,12.20
2014,07,04,02,49,12.20
2014,07,04,02,50,12.20
2014,07,04,02,51,12.20
2014,07,04,02,52,12.20
2014,07,04,02,53,12.20
2014,07,04,02,54,12.20
2014,07,04,02,55,12.20
2014,07,04,02,56,12.20
2014,07,04,02,57,12.20
2014,07,04,02,58,12.20
2014,07,04,02,59,12.10
2014,07,04,03,00,12.10
2014,07,04,03,01,12.10
2014,07,04,03,02,12.10
2014,07,04,03,03,12.10
2014,07,04,03,04,12.10
2014,07,04,03,05,12.10
2014,07,04,03,06,12.10
2014,07,04,03,07,12.10
2014,07,04,03,08,12.10
2014,07,04,03,09,12.10
2014,07,04,03,10,12.10
2014,07,04,03,11,12.10
2014,07,04,03,12,12.10
2014,07,04,03,13,12.10
2014,07,04,03,14,12.10
2014,07,04,03,15,12.10
2014,07,04,03,16,12.10
2014,07,04,03,17,12.10
2014,07,04,03,18,12.10
2014,07,04,03,19,12.10
2014,07,04,03,20,12.10
2014,07,04,03,21,12.10
2014,07,04,03,22,12.10
2014,07,04,03,23,12.10
2014,07,04,03,24,12.10
2014,07,04,03,25,12.10
2014,07,04,03,26,12.10
2014,07,04,03,27,12.10
2014,07,04,03,28,12.10
2014,07,04,03,29,12.10
2014,07,04,03,30,12.00
2014,07,04,03,31,12.10
2014,07,04,03,32,12.10
2014,07,04,03,33,12.00
2014,07,04,03,34,12.00
2014,07,04,03,35,12.00
2014,07,04,03,36,12.00
2014,07,04,03,37,12.00
2014,07,04,03,38,12.00
2014,07,04,03,39,12.00
2014,07,04,03,40,12.00
2014,07,04,03,41,12.00
2014,07,04,03,42,12.00
2014,07,04,03,43,12.00
2014,07,04,03,44,12.00
2014,07,04,03,45,12.00
2014,07,04,03,46,12.00
2014,07,04,03,47,12.00
2014,07,04,03,48,12.00
2014,07,04,03,49,12.00
2014,07,04,03,50,12.00
2014,07,04,03,51,12.00
2014,07,04,03,52,12.00
2014,07,04,03,53,12.00
2014,07,04,03,54,11.90
2014,07,04,03,55,11.90
2014,07,04,03,56,11.90
2014,07,04,03,57,11.90
2014,07,04,03,58,11.90
2014,07,04,03,59,11.90
2014,07,04,04,00,11.90
2014,07,04,04,01,11.90
2014,07,04,04,02,11.90
2014,07,04,04,03,11.90
2014,07,04,04,04,11.90
2014,07,04,04,05,11.90
2014,07,04,04,06,11.90
2014,07,04,04,07,11.90
2014,07,04,04,08,11.90
2014,07,04,04,09,11.90
2014,07,04,04,10,11.80
2014,07,04,04,11,11.80
2014,07,04,04,12,11.80
2014,07,04,04,13,11.80
2014,07,04,04,14,11.80
2014,07,04,04,15,11.80
2014,07,04,04,16,11.80
2014,07,04,04,17,11.80
2014,07,04,04,18,11.80
2014,07,04,04,19,11.80
2014,07,04,04,20,11.80
2014,07,04,04,21,11.80
2014,07,04,04,22,11.80
2014,07,04,04,23,11.80
2014,07,04,04,24,11.80
2014,07,04,04,25,11.80
2014,07,04,04,26,11.80
2014,07,04,04,27,11.80
2014,07,04,04,28,11.80
2014,07,04,04,29,11.80
2014,07,04,04,30,11.80
2014,07,04,04,31,11.80
2014,07,04,04,32,11.80
2014,07,04,04,33,11.70
2014,07,04,04,34,11.70
2014,07,04,04,35,11.70
2014,07,04,04,36,11.70
2014,07,04,04,37,11.70
2014,07,04,04,38,11.70
2014,07,04,04,39,11.70
2014,07,04,04,40,11.70
2014,07,04,04,41,11.70
2014,07,04,04,42,11.70
2014,07,04,04,43,11.70
2014,07,04,04,44,11.70
2014,07,04,04,45,11.70
2014,07,04,04,46,11.70
2014,07,04,04,47,11.70
2014,07,04,04,48,11.70
2014,07,04,04,49,11.70
2014,07,04,04,50,11.70
2014,07,04,04,51,11.70
2014,07,04,04,52,11.70
2014,07,04,04,53,11.70
2014,07,04,04,54,11.70
2014,07,04,04,55,11.70
2014,07,04,04,56,11.70
2014,07,04,04,57,11.70
2014,07,04,04,58,11.70
2014,07,04,04,59,11.70
2014,07,04,05,00,11.70
2014,07,04,05,01,11.70
2014,07,04,05,02,11.60
2014,07,04,05,03,11.60
2014,07,04,05,04,11.60
2014,07,04,05,05,11.60
2014,07,04,05,06,11.60
2014,07,04,05,07,11.60
2014,07,04,05,08,11.60
2014,07,04,05,09,11.60
2014,07,04,05,10,11.50
2014,07,04,05,11,11.50
2014,07,04,05,12,11.50
2014,07,04,05,13,11.50
2014,07,04,05,14,11.50
2014,07,04,05,15,11.50
2014,07,04,05,16,11.40
2014,07,04,05,17,11.40
2014,07,04,05,18,11.40
2014,07,04,05,19,11.40
2014,07,04,05,20,11.40
2014,07,04,05,21,11.40
2014,07,04,05,22,11.40
2014,07,04,05,23,11.40
2014,07,04,05,24,11.40
2014,07,04,05,25,11.40
2014,07,04,05,26,11.40
2014,07,04,05,27,11.40
2014,07,04,05,28,11.40
2014,07,04,05,29,11.40
2014,07,04,05,30,11.40
2014,07,04,05,31,11.40
2014,07,04,05,32,11.40
2014,07,04,05,33,11.40
2014,07,04,05,34,11.50
2014,07,04,05,35,11.50
2014,07,04,05,36,11.50
2014,07,04,05,37,11.50
2014,07,04,05,38,11.50
2014,07,04,05,39,11.50
2014,07,04,05,40,11.50
2014,07,04,05,41,11.50
2014,07,04,05,42,11.50
2014,07,04,05,43,11.50
2014,07,04,05,44,11.40
2014,07,04,05,45,11.40
2014,07,04,05,46,11.40
2014,07,04,05,47,11.40
2014,07,04,05,48,11.40
2014,07,04,05,49,11.40
2014,07,04,05,50,11.40
2014,07,04,05,51,11.40
2014,07,04,05,52,11.40
2014,07,04,05,53,11.40
2014,07,04,05,54,11.40
2014,07,04,05,55,11.40
2014,07,04,05,56,11.40
2014,07,04,05,57,11.40
2014,07,04,05,58,11.40
2014,07,04,05,59,11.40
2014,07,04,06,00,11.40
2014,07,04,06,01,11.40
2014,07,04,06,02,11.40
2014,07,04,06,03,11.40
2014,07,04,06,04,11.40
2014,07,04,06,05,11.40
2014,07,04,06,06,11.40
2014,07,04,06,07,11.40
2014,07,04,06,08,11.40
2014,07,04,06,09,11.40
2014,07,04,06,10,11.40
2014,07,04,06,11,11.40
2014,07,04,06,12,11.40
2014,07,04,06,13,11.40
2014,07,04,06,14,11.40
2014,07,04,06,15,11.40
2014,07,04,06,16,11.40
2014,07,04,06,17,11.40
2014,07,04,06,18,11.40
2014,07,04,06,19,11.40
2014,07,04,06,20,11.40
2014,07,04,06,21,11.40
2014,07,04,06,22,11.40
2014,07,04,06,23,11.40
2014,07,04,06,24,11.40
2014,07,04,06,25,11.40
2014,07,04,06,26,11.40
2014,07,04,06,27,11.40
2014,07,04,06,28,11.40
2014,07,04,06,29,11.40
2014,07,04,06,30,11.40
2014,07,04,06,31,11.50
2014,07,04,06,32,11.50
2014,07,04,06,33,11.50
2014,07,04,06,34,11.50
2014,07,04,06,35,11.50
2014,07,04,06,36,11.60
2014,07,04,06,37,11.60
2014,07,04,06,38,11.60
2014,07,04,06,39,11.60
2014,07,04,06,40,11.60
2014,07,04,06,41,11.60
2014,07,04,06,42,11.60
2014,07,04,06,43,11.70
2014,07,04,06,44,11.70
2014,07,04,06,45,11.70
2014,07,04,06,46,11.70
2014,07,04,06,47,11.70
2014,07,04,06,48,11.70
2014,07,04,06,49,11.80
2014,07,04,06,50,11.80
2014,07,04,06,51,11.80
2014,07,04,06,52,11.80
2014,07,04,06,53,11.90
2014,07,04,06,54,11.90
2014,07,04,06,55,11.90
2014,07,04,06,56,12.00
2014,07,04,06,57,12.00
2014,07,04,06,58,12.00
2014,07,04,06,59,12.10
2014,07,04,07,00,12.10
2014,07,04,07,01,12.10
2014,07,04,07,02,12.10
2014,07,04,07,03,12.20
2014,07,04,07,04,12.20
2014,07,04,07,05,12.20
2014,07,04,07,06,12.20
2014,07,04,07,07,12.20
2014,07,04,07,08,12.20
2014,07,04,07,09,12.20
2014,07,04,07,10,12.20
2014,07,04,07,11,12.20
2014,07,04,07,12,12.20
2014,07,04,07,13,12.30
2014,07,04,07,14,12.30
2014,07,04,07,15,12.30
2014,07,04,07,16,12.30
2014,07,04,07,17,12.30
2014,07,04,07,18,12.30
2014,07,04,07,19,12.30
2014,07,04,07,20,12.40
2014,07,04,07,21,12.40
2014,07,04,07,22,12.40
2014,07,04,07,23,12.40
2014,07,04,07,24,12.50
2014,07,04,07,25,12.50
2014,07,04,07,26,12.50
2014,07,04,07,27,12.50
2014,07,04,07,28,12.50
2014,07,04,07,29,12.40
2014,07,04,07,30,12.40
2014,07,04,07,31,12.40
2014,07,04,07,32,12.50
2014,07,04,07,33,12.50
2014,07,04,07,34,12.50
2014,07,04,07,35,12.60
2014,07,04,07,36,12.60
2014,07,04,07,37,12.60
2014,07,04,07,38,12.60
2014,07,04,07,39,12.60
2014,07,04,07,40,12.60
2014,07,04,07,41,12.70
2014,07,04,07,42,12.70
2014,07,04,07,43,12.70
2014,07,04,07,44,12.70
2014,07,04,07,45,12.70
2014,07,04,07,46,12.70
2014,07,04,07,47,12.70
2014,07,04,07,48,12.70
2014,07,04,07,49,12.80
2014,07,04,07,50,12.80
2014,07,04,07,51,12.90
2014,07,04,07,52,12.90
2014,07,04,07,53,12.90
2014,07,04,07,54,12.90
2014,07,04,07,55,12.90
2014,07,04,07,56,12.90
2014,07,04,07,57,12.90
2014,07,04,07,58,13.00
2014,07,04,07,59,13.00
2014,07,04,08,00,13.00
2014,07,04,08,01,13.10
2014,07,04,08,02,13.10
2014,07,04,08,03,13.10
2014,07,04,08,04,13.10
2014,07,04,08,05,13.00
2014,07,04,08,06,13.00
2014,07,04,08,07,12.90
2014,07,04,08,08,12.90
2014,07,04,08,09,12.90
2014,07,04,08,10,12.90
2014,07,04,08,11,12.90
2014,07,04,08,12,12.80
2014,07,04,08,13,12.80
2014,07,04,08,14,12.90
2014,07,04,08,15,12.90
2014,07,04,08,16,12.90
2014,07,04,08,17,12.90
2014,07,04,08,18,12.90
2014,07,04,08,19,12.90
2014,07,04,08,20,12.90
2014,07,04,08,21,12.90
2014,07,04,08,22,12.90
2014,07,04,08,23,12.90
2014,07,04,08,24,12.90
2014,07,04,08,25,12.90
2014,07,04,08,26,12.90
2014,07,04,08,27,12.90
2014,07,04,08,28,12.90
2014,07,04,08,29,13.00
2014,07,04,08,30,13.00
2014,07,04,08,31,13.00
2014,07,04,08,32,13.10
2014,07,04,08,33,13.10
2014,07,04,08,34,13.10
2014,07,04,08,35,13.10
2014,07,04,08,36,13.10
2014,07,04,08,37,13.20
2014,07,04,08,38,13.20
2014,07,04,08,39,13.20
2014,07,04,08,40,13.30
2014,07,04,08,41,13.30
2014,07,04,08,42,13.30
2014,07,04,08,43,13.30
2014,07,04,08,44,13.40
2014,07,04,08,45,13.50
2014,07,04,08,46,13.50
2014,07,04,08,47,13.50
2014,07,04,08,48,13.50
2014,07,04,08,49,13.60
2014,07,04,08,50,13.60
2014,07,04,08,51,13.70
2014,07,04,08,52,13.70
2014,07,04,08,53,13.80
2014,07,04,08,54,13.90
2014,07,04,08,55,13.90
2014,07,04,08,56,14.00
2014,07,04,08,57,14.00
2014,07,04,08,58,14.10
2014,07,04,08,59,14.20
2014,07,04,09,00,14.20
2014,07,04,09,01,14.20
2014,07,04,09,02,14.30
2014,07,04,09,03,14.30
2014,07,04,09,04,14.40
2014,07,04,09,05,14.40
2014,07,04,09,06,14.40
2014,07,04,09,07,14.50
2014,07,04,09,08,14.50
2014,07,04,09,09,14.60
2014,07,04,09,10,14.60
2014,07,04,09,11,14.60
2014,07,04,09,12,14.70
2014,07,04,09,13,14.70
2014,07,04,09,14,14.70
2014,07,04,09,15,14.80
2014,07,04,09,16,14.80
2014,07,04,09,17,14.80
2014,07,04,09,18,14.80
2014,07,04,09,19,14.90
2014,07,04,09,20,14.90
2014,07,04,09,21,14.90
2014,07,04,09,22,14.80
2014,07,04,09,23,14.80
2014,07,04,09,24,14.80
2014,07,04,09,25,14.80
2014,07,04,09,26,14.80
2014,07,04,09,27,14.80
2014,07,04,09,28,14.80
2014,07,04,09,29,14.80
2014,07,04,09,30,14.80
2014,07,04,09,31,14.80
2014,07,04,09,32,14.80
2014,07,04,09,33,14.90
2014,07,04,09,34,14.90
2014,07,04,09,35,14.90
2014,07,04,09,36,14.90
2014,07,04,09,37,14.80
2014,07,04,09,38,14.80
2014,07,04,09,39,14.80
2014,07,04,09,40,14.70
2014,07,04,09,41,14.70
2014,07,04,09,42,14.70
2014,07,04,09,43,14.60
2014,07,04,09,44,14.60
2014,07,04,09,45,14.60
2014,07,04,09,46,14.70
2014,07,04,09,47,14.70
2014,07,04,09,48,14.70
2014,07,04,09,49,14.70
2014,07,04,09,50,14.80
2014,07,04,09,51,14.80
2014,07,04,09,52,14.80
2014,07,04,09,53,14.80
2014,07,04,09,54,14.80
2014,07,04,09,55,14.80
2014,07,04,09,56,14.80
2014,07,04,09,57,14.80
2014,07,04,09,58,14.80
2014,07,04,09,59,14.80
2014,07,04,10,00,14.80
2014,07,04,10,01,14.90
2014,07,04,10,02,14.90
2014,07,04,10,03,14.90
2014,07,04,10,04,14.90
2014,07,04,10,05,15.00
2014,07,04,10,06,15.00
2014,07,04,10,07,15.10
2014,07,04,10,08,15.10
2014,07,04,10,09,15.10
2014,07,04,10,10,15.10
2014,07,04,10,11,15.10
2014,07,04,10,12,15.10
2014,07,04,10,13,15.10
2014,07,04,10,14,15.10
2014,07,04,10,15,15.20
2014,07,04,10,16,15.20
2014,07,04,10,17,15.30
2014,07,04,10,18,15.30
2014,07,04,10,19,15.30
2014,07,04,10,20,15.30
2014,07,04,10,21,15.40
2014,07,04,10,22,15.40
2014,07,04,10,23,15.40
2014,07,04,10,24,15.50
2014,07,04,10,25,15.50
2014,07,04,10,26,15.60
2014,07,04,10,27,15.60
2014,07,04,10,28,15.70
2014,07,04,10,29,15.70
2014,07,04,10,30,15.70
2014,07,04,10,31,15.70
2014,07,04,10,32,15.60
2014,07,04,10,33,15.60
2014,07,04,10,34,15.60
2014,07,04,10,35,15.60
2014,07,04,10,36,15.60
2014,07,04,10,37,15.60
2014,07,04,10,38,15.70
2014,07,04,10,39,15.70
2014,07,04,10,40,15.70
2014,07,04,10,41,15.80
2014,07,04,10,42,15.90
2014,07,04,10,43,15.90
2014,07,04,10,44,16.00
2014,07,04,10,45,16.10
2014,07,04,10,46,16.10
2014,07,04,10,47,16.10
2014,07,04,10,48,16.20
2014,07,04,10,49,16.30
2014,07,04,10,50,16.40
2014,07,04,10,51,16.40
2014,07,04,10,52,16.40
2014,07,04,10,53,16.40
2014,07,04,10,54,16.40
2014,07,04,10,55,16.50
2014,07,04,10,56,16.60
2014,07,04,10,57,16.60
2014,07,04,10,58,16.60
2014,07,04,10,59,16.60
2014,07,04,11,00,16.60
2014,07,04,11,01,16.60
2014,07,04,11,02,16.50
2014,07,04,11,03,16.50
2014,07,04,11,04,16.50
2014,07,04,11,05,16.50
2014,07,04,11,06,16.50
2014,07,04,11,07,16.60
2014,07,04,11,08,16.60
2014,07,04,11,09,16.70
2014,07,04,11,10,16.70
2014,07,04,11,11,16.70
2014,07,04,11,12,16.80
2014,07,04,11,13,16.80
2014,07,04,11,14,16.80
2014,07,04,11,15,16.80
2014,07,04,11,16,16.80
2014,07,04,11,17,16.60
2014,07,04,11,18,16.60
2014,07,04,11,19,16.60
2014,07,04,11,20,16.50
2014,07,04,11,21,16.50
2014,07,04,11,22,16.50
2014,07,04,11,23,16.50
2014,07,04,11,24,16.50
2014,07,04,11,25,16.50
2014,07,04,11,26,16.50
2014,07,04,11,27,16.60
2014,07,04,11,28,16.70
2014,07,04,11,29,16.70
2014,07,04,11,30,16.70
2014,07,04,11,31,16.60
2014,07,04,11,32,16.60
2014,07,04,11,33,16.50
2014,07,04,11,34,16.40
2014,07,04,11,35,16.30
2014,07,04,11,36,16.30
2014,07,04,11,37,16.20
2014,07,04,11,38,16.30
2014,07,04,11,39,16.40
2014,07,04,11,40,16.40
2014,07,04,11,41,16.50
2014,07,04,11,42,16.60
2014,07,04,11,43,16.70
2014,07,04,11,44,16.80
2014,07,04,11,45,16.80
2014,07,04,11,46,16.80
2014,07,04,11,47,16.90
2014,07,04,11,48,17.00
2014,07,04,11,49,17.10
2014,07,04,11,50,17.20
2014,07,04,11,51,17.20
2014,07,04,11,52,17.30
2014,07,04,11,53,17.20
2014,07,04,11,54,17.20
2014,07,04,11,55,17.10
2014,07,04,11,56,17.00
2014,07,04,11,57,17.00
2014,07,04,11,58,17.00
2014,07,04,11,59,17.10
2014,07,04,12,00,17.20
2014,07,04,12,01,17.40
2014,07,04,12,02,17.50
2014,07,04,12,03,17.50
2014,07,04,12,04,17.60
2014,07,04,12,05,17.60
2014,07,04,12,06,17.60
2014,07,04,12,07,17.70
2014,07,04,12,08,17.70
2014,07,04,12,09,17.70
2014,07,04,12,10,17.70
2014,07,04,12,11,17.70
2014,07,04,12,12,17.80
2014,07,04,12,13,17.80
2014,07,04,12,14,17.70
2014,07,04,12,15,17.70
2014,07,04,12,16,17.60
2014,07,04,12,17,17.50
2014,07,04,12,18,17.50
2014,07,04,12,19,17.40
2014,07,04,12,20,17.40
2014,07,04,12,21,17.30
2014,07,04,12,22,17.30
2014,07,04,12,23,17.30
2014,07,04,12,24,17.30
2014,07,04,12,25,17.30
2014,07,04,12,26,17.30
2014,07,04,12,27,17.30
2014,07,04,12,28,17.40
2014,07,04,12,29,17.50
2014,07,04,12,30,17.60
2014,07,04,12,31,17.70
2014,07,04,12,32,17.70
2014,07,04,12,33,17.60
2014,07,04,12,34,17.60
2014,07,04,12,35,17.70
2014,07,04,12,36,17.70
2014,07,04,12,37,17.80
2014,07,04,12,38,17.80
2014,07,04,12,39,17.70
2014,07,04,12,40,17.60
2014,07,04,12,41,17.60
2014,07,04,12,42,17.50
2014,07,04,12,43,17.50
2014,07,04,12,44,17.40
2014,07,04,12,45,17.40
2014,07,04,12,46,17.40
2014,07,04,12,47,17.40
2014,07,04,12,48,17.30
2014,07,04,12,49,17.40
2014,07,04,12,50,17.50
2014,07,04,12,51,17.50
2014,07,04,12,52,17.60
2014,07,04,12,53,17.70
2014,07,04,12,54,17.80
2014,07,04,12,55,17.90
2014,07,04,12,56,17.90
2014,07,04,12,57,17.90
2014,07,04,12,58,17.90
2014,07,04,12,59,17.80
2014,07,04,13,00,17.70
2014,07,04,13,01,17.60
2014,07,04,13,02,17.60
2014,07,04,13,03,17.60
2014,07,04,13,04,17.70
2014,07,04,13,05,17.70
2014,07,04,13,06,17.70
2014,07,04,13,07,17.80
2014,07,04,13,08,17.80
2014,07,04,13,09,17.80
2014,07,04,13,10,17.80
2014,07,04,13,11,17.90
2014,07,04,13,12,18.00
2014,07,04,13,13,18.00
2014,07,04,13,14,18.00
2014,07,04,13,15,18.10
2014,07,04,13,16,18.10
2014,07,04,13,17,18.20
2014,07,04,13,18,18.10
2014,07,04,13,19,18.10
2014,07,04,13,20,18.20
2014,07,04,13,21,18.10
2014,07,04,13,22,18.10
2014,07,04,13,23,18.10
2014,07,04,13,24,18.20
2014,07,04,13,25,18.20
2014,07,04,13,26,18.20
2014,07,04,13,27,18.20
2014,07,04,13,28,18.10
2014,07,04,13,29,18.10
2014,07,04,13,30,18.00
2014,07,04,13,31,18.00
2014,07,04,13,32,18.00
2014,07,04,13,33,18.00
2014,07,04,13,34,18.00
2014,07,04,13,35,18.10
2014,07,04,13,36,18.10
2014,07,04,13,37,18.20
2014,07,04,13,38,18.20
2014,07,04,13,39,18.20
2014,07,04,13,40,18.40
2014,07,04,13,41,18.50
2014,07,04,13,42,18.60
2014,07,04,13,43,18.70
2014,07,04,13,44,18.80
2014,07,04,13,45,18.80
2014,07,04,13,46,18.80
2014,07,04,13,47,18.70
2014,07,04,13,48,18.70
2014,07,04,13,49,18.60
2014,07,04,13,50,18.60
2014,07,04,13,51,18.70
2014,07,04,13,52,18.70
2014,07,04,13,53,18.70
2014,07,04,13,54,18.70
2014,07,04,13,55,18.70
2014,07,04,13,56,18.70
2014,07,04,13,57,18.70
2014,07,04,13,58,18.70
2014,07,04,13,59,18.70
2014,07,04,14,00,18.70
2014,07,04,14,01,18.50
2014,07,04,14,02,18.50
2014,07,04,14,03,18.40
2014,07,04,14,04,18.30
2014,07,04,14,05,18.20
2014,07,04,14,06,18.20
2014,07,04,14,07,18.20
2014,07,04,14,08,18.10
2014,07,04,14,09,18.10
2014,07,04,14,10,18.20
2014,07,04,14,11,18.10
2014,07,04,14,12,18.00
2014,07,04,14,13,17.90
2014,07,04,14,14,17.80
2014,07,04,14,15,17.70
2014,07,04,14,16,17.70
2014,07,04,14,17,17.60
2014,07,04,14,18,17.60
2014,07,04,14,19,17.50
2014,07,04,14,20,17.50
2014,07,04,14,21,17.60
2014,07,04,14,22,17.60
2014,07,04,14,23,17.60
2014,07,04,14,24,17.70
2014,07,04,14,25,17.80
2014,07,04,14,26,17.80
2014,07,04,14,27,17.90
2014,07,04,14,28,18.00
2014,07,04,14,29,18.00
2014,07,04,14,30,18.10
2014,07,04,14,31,18.20
2014,07,04,14,32,18.10
2014,07,04,14,33,18.00
2014,07,04,14,34,18.00
2014,07,04,14,35,18.00
2014,07,04,14,36,17.90
2014,07,04,14,37,17.90
2014,07,04,14,38,17.80
2014,07,04,14,39,17.80
2014,07,04,14,40,17.80
2014,07,04,14,41,17.80
2014,07,04,14,42,17.80
2014,07,04,14,43,17.80
2014,07,04,14,44,17.70
2014,07,04,14,45,17.70
2014,07,04,14,46,17.80
2014,07,04,14,47,17.80
2014,07,04,14,48,17.80
2014,07,04,14,49,17.80
2014,07,04,14,50,17.80
2014,07,04,14,51,17.90
2014,07,04,14,52,17.90
2014,07,04,14,53,18.00
2014,07,04,14,54,18.00
2014,07,04,14,55,18.00
2014,07,04,14,56,18.00
2014,07,04,14,57,18.00
2014,07,04,14,58,17.90
2014,07,04,14,59,17.90
2014,07,04,15,00,17.90
2014,07,04,15,01,18.00
2014,07,04,15,02,18.00
2014,07,04,15,03,18.00
2014,07,04,15,04,18.00
2014,07,04,15,05,18.00
2014,07,04,15,06,17.90
2014,07,04,15,07,17.90
2014,07,04,15,08,17.90
2014,07,04,15,09,17.90
2014,07,04,15,10,17.90
2014,07,04,15,11,18.00
2014,07,04,15,12,17.90
2014,07,04,15,13,17.90
2014,07,04,15,14,17.90
2014,07,04,15,15,17.90
2014,07,04,15,16,17.80
2014,07,04,15,17,17.80
2014,07,04,15,18,17.80
2014,07,04,15,19,17.80
2014,07,04,15,20,17.80
2014,07,04,15,21,17.80
2014,07,04,15,22,17.80
2014,07,04,15,23,17.80
2014,07,04,15,24,17.80
2014,07,04,15,25,17.80
2014,07,04,15,26,17.80
2014,07,04,15,27,17.70
2014,07,04,15,28,17.70
2014,07,04,15,29,17.70
2014,07,04,15,30,17.70
2014,07,04,15,31,17.70
2014,07,04,15,32,17.70
2014,07,04,15,33,17.70
2014,07,04,15,34,17.70
2014,07,04,15,35,17.70
2014,07,04,15,36,17.70
2014,07,04,15,37,17.60
2014,07,04,15,38,17.60
2014,07,04,15,39,17.50
2014,07,04,15,40,17.50
2014,07,04,15,41,17.50
2014,07,04,15,42,17.40
2014,07,04,15,43,17.30
2014,07,04,15,44,17.30
2014,07,04,15,45,17.20
2014,07,04,15,46,17.20
2014,07,04,15,47,17.20
2014,07,04,15,48,17.20
2014,07,04,15,49,17.20
2014,07,04,15,50,17.10
2014,07,04,15,51,17.20
2014,07,04,15,52,17.10
2014,07,04,15,53,17.10
2014,07,04,15,54,17.20
2014,07,04,15,55,17.20
2014,07,04,15,56,17.20
2014,07,04,15,57,17.20
2014,07,04,15,58,17.20
2014,07,04,15,59,17.30
2014,07,04,16,00,17.30
2014,07,04,16,01,17.30
2014,07,04,16,02,17.20
2014,07,04,16,03,17.20
2014,07,04,16,04,17.20
2014,07,04,16,05,17.20
2014,07,04,16,06,17.20
2014,07,04,16,07,17.20
2014,07,04,16,08,17.20
2014,07,04,16,09,17.20
2014,07,04,16,10,17.20
2014,07,04,16,11,17.20
2014,07,04,16,12,17.20
2014,07,04,16,13,17.20
2014,07,04,16,14,17.20
2014,07,04,16,15,17.20
2014,07,04,16,16,17.20
2014,07,04,16,17,17.20
2014,07,04,16,18,17.20
2014,07,04,16,19,17.20
2014,07,04,16,20,17.20
2014,07,04,16,21,17.20
2014,07,04,16,22,17.20
2014,07,04,16,23,17.30
2014,07,04,16,24,17.30
2014,07,04,16,25,17.30
2014,07,04,16,26,17.30
2014,07,04,16,27,17.30
2014,07,04,16,28,17.30
2014,07,04,16,29,17.30
2014,07,04,16,30,17.20
2014,07,04,16,31,17.20
2014,07,04,16,32,17.10
2014,07,04,16,33,17.10
2014,07,04,16,34,17.10
2014,07,04,16,35,17.00
2014,07,04,16,36,16.90
2014,07,04,16,37,16.90
2014,07,04,16,38,16.80
2014,07,04,16,39,16.80
2014,07,04,16,40,16.80
2014,07,04,16,41,16.70
2014,07,04,16,42,16.70
2014,07,04,16,43,16.70
2014,07,04,16,44,16.70
2014,07,04,16,45,16.70
2014,07,04,16,46,16.70
2014,07,04,16,47,16.70
2014,07,04,16,48,16.70
2014,07,04,16,49,16.70
2014,07,04,16,50,16.70
2014,07,04,16,51,16.80
2014,07,04,16,52,16.80
2014,07,04,16,53,16.80
2014,07,04,16,54,16.80
2014,07,04,16,55,16.80
2014,07,04,16,56,16.80
2014,07,04,16,57,16.80
2014,07,04,16,58,16.80
2014,07,04,16,59,16.70
2014,07,04,17,00,16.70
2014,07,04,17,01,16.70
2014,07,04,17,02,16.70
2014,07,04,17,03,16.70
2014,07,04,17,04,16.70
2014,07,04,17,05,16.70
2014,07,04,17,06,16.70
2014,07,04,17,07,16.70
2014,07,04,17,08,16.70
2014,07,04,17,09,16.70
2014,07,04,17,10,16.60
2014,07,04,17,11,16.60
2014,07,04,17,12,16.60
2014,07,04,17,13,16.60
2014,07,04,17,14,16.60
2014,07,04,17,15,16.50
2014,07,04,17,16,16.50
2014,07,04,17,17,16.50
2014,07,04,17,18,16.50
2014,07,04,17,19,16.40